Wind_Speed
9 11 11 12 8 6 3 3 2 3 1 3 3 4 5 5 3 3 6 7 9 9 10 12 16 15 13 14 15 18 21 25 30 28 22 23 18 12 18 16 20 23 20
9 9 9 7 4 1 3 1 2 3 3 8 4 5 5 3 1 2 5 4 8 10 9 12 16 14 12 14 16 17 23 25 24 18 24 15 18 15 18 20 24 25 24
7 5 7 4 2 2 3 3 1 4 4 11 9 6 4 3 1 6 3 4 6 9 9 11 14 18 15 14 11 17 16 14 18 25 20 24 25 17 19 21 24 23 24
6 4 6 3 1 2 2 3 4 5 7 12 14 5 7 7 6 5 4 7 12 10 9 9 18 19 16 13 13 2 11 18 25 25 18 17 16 19 17 18 19 21 20
3 2 4 4 3 2 2 2 4 5 7 11 11 5 11 11 8 5 5 11 19 16 12 9 15 16 18 13 14 17 15 20 19 20 19 20 18 20 16 14 16 15 17
1 4 5 2 2 1 3 3 4 6 6 8 9 9 13 12 9 5 6 12 16 12 10 11 13 10 13 15 19 15 17 21 22 22 17 12 15 15 14 14 13 13 13
4 6 6 4 5 3 3 1 5 6 5 8 8 10 13 12 10 6 7 10 14 16 17 12 13 13 13 11 13 18 19 20 21 20 14 14 14 13 11 11 12 10 10
5 7 8 7 6 6 5 6 5 3 6 9 10 10 12 13 11 9 9 10 11 13 18 16 16 14 11 9 8 10 13 14 13 14 18 13 11 4 7 10 13 11 10
7 10 10 10 7 7 8 9 6 4 5 8 11 11 12 15 13 10 10 8 10 15 17 19 15 14 13 12 13 14 8 10 13 14 16 13 11 12 12 12 9 8 6
7 10 12 13 11 11 13 14 14 14 11 11 12 13 13 14 15 12 11 9 9 12 15 16 17 15 15 15 15 14 13 15 15 14 14 11 10 12 9 8 7 4 2
8 10 13 12 12 12 11 11 13 14 17 14 14 13 15 15 16 16 11 9 12 10 10 12 14 14 13 16 15 13 16 13 12 12 13 13 11 9 6 3 1 3 6
8 8 10 13 12 11 12 16 16 16 16 17 17 14 13 13 13 13 11 11 10 11 12 14 16 14 15 15 15 11 12 13 15 11 9 7 5 2 1 4 7 10 14
9 8 9 9 10 11 10 13 15 18 21 27 23 20 20 19 18 18 20 21 18 17 18 17 20 19 17 17 18 18 15 13 10 7 4 1 2 4 7 10 12 15 17
8 8 8 9 10 11 11 11 13 14 15 17 18 20 22 26 26 26 24 23 21 21 20 19 17 16 15 12 10 9 7 5 2 0 3 5 7 9 11 13 14 14 14
8 7 7 8 10 11 13 12 12 13 14 15 18 21 22 22 22 21 20 19 17 16 15 15 13 12 10 8 6 4 3 2 3 4 6 8 10 12 13 13 13 15 15
8 9 8 9 10 12 12 13 15 17 18 20 19 18 17 16 16 15 13 12 11 11 10 9 8 7 6 5 4 3 2 2 3 5 7 9 10 12 14 15 17 17 17
9 7 9 9 11 12 13 13 13 14 15 15 14 12 11 11 12 11 11 11 7 6 6 5 3 2 1 2 3 4 3 2 4 5 9 11 11 12 13 15 19 23 26
10 9 10 11 11 12 14 13 13 13 13 10 9 7 6 5 3 3 4 4 4 2 2 1 2 3 3 2 2 3 5 7 9 7 6 6 7 8 12 18 19 23 26
13 12 12 13 14 14 14 15 15 15 13 11 9 7 8 7 6 6 6 5 5 4 2 2 2 2 1 1 2 6 8 11 9 8 11 12 14 17 20 21 21 24 24
13 13 13 13 14 16 16 16 17 17 17 16 15 14 13 12 11 11 11 11 10 8 5 4 3 4 2 5 8 10 12 13 14 16 15 16 19 18 19 21 24 26 31
17 15 15 15 15 16 18 20 21 20 20 20 19 18 17 17 15 14 14 15 14 12 7 7 7 8 10 12 16 17 17 17 18 19 21 18 18 20 22 25 25 28 30
22 19 17 17 17 16 19 19 20 22 23 23 22 21 21 20 19 19 18 16 16 13 11 11 12 12 14 16 18 18 18 18 17 17 18 19 21 24 27 28 31 29 33
27 26 23 20 19 18 19 20 21 22 22 24 25 23 23 23 22 23 22 21 18 17 16 16 16 18 19 21 20 19 18 17 18 21 22 24 25 26 27 30 32 32 35
28 30 29 25 25 24 21 19 22 25 25 26 27 27 26 27 26 25 25 24 24 23 22 21 22 22 21 20 20 21 21 22 24 25 26 27 28 29 30 31 32 35 37
33 33 34 31 29 29 27 25 26 27 27 28 28 28 29 28 29 27 26 27 27 26 26 24 23 23 23 21 20 21 24 25 27 30 31 29 30 33 32 32 33 35 39
36 35 35 36 36 34 34 32 29 28 28 29 30 31 30 31 32 32 30 29 29 30 30 30 28 26 26 25 24 25 27 28 31 33 33 29 27 29 31 35 36 38 41
Wind_Direction
286 302 295 304 312 326 336 15 346 351 183 147 191 217 156 140 109 38 32 35 76 107 162 166 175 180 182 190 194 194 194 192 195 167 179 185 192 183 201 184 190 186 187
299 298 297 309 327 63 17 21 351 40 164 156 161 173 151 120 90 74 50 49 36 106 139 167 172 173 176 177 178 187 208 195 164 163 171 180 172 181 190 192 175 176 189
307 297 296 334 29 103 64 53 103 80 149 171 156 158 169 119 187 98 70 355 69 92 110 155 167 176 174 172 168 212 213 202 205 179 162 153 187 164 165 165 171 167 172
306 292 286 342 69 82 104 78 83 116 138 167 161 160 149 132 107 119 45 67 89 98 112 135 155 164 170 178 180 136 128 137 145 145 147 142 147 141 142 141 157 167 167
302 302 297 335 23 59 146 132 98 110 139 168 179 168 148 144 131 135 98 82 71 92 87 119 146 154 164 144 114 105 122 136 145 153 155 124 113 127 132 133 135 161 182
14 345 339 8 63 360 174 141 140 133 138 155 167 175 164 148 131 108 52 72 79 115 114 130 150 150 145 126 114 109 122 124 147 153 146 144 128 118 110 123 144 159 172
25 4 8 88 70 113 155 75 144 154 155 150 159 178 169 159 140 126 81 64 73 79 98 114 134 144 111 113 116 111 103 121 123 150 158 136 129 109 112 130 137 147 159
36 26 55 73 70 81 92 109 115 181 198 174 155 164 165 170 149 148 106 74 68 74 83 113 128 148 131 118 119 125 100 112 119 134 156 151 151 121 119 127 131 145 153
67 66 75 78 84 83 82 85 71 73 93 136 151 160 158 171 164 151 124 96 79 88 97 108 121 138 141 110 117 143 144 143 137 138 162 168 155 149 140 140 144 153 158
92 92 86 77 71 82 79 83 84 79 85 122 139 149 146 156 163 157 143 130 109 102 100 106 108 122 131 123 112 103 123 138 134 126 142 157 143 143 134 144 160 172 219
106 101 97 88 79 80 89 86 88 81 79 108 130 137 141 150 155 158 161 145 133 125 125 130 127 118 125 121 112 118 131 137 129 128 136 142 139 142 152 163 223 292 290
115 114 104 102 96 94 97 94 90 87 90 105 112 113 118 137 149 153 156 154 141 134 124 133 137 133 119 125 123 127 132 134 133 133 128 120 129 127 309 309 311 311 313
122 116 109 107 110 110 111 105 101 99 94 89 97 100 102 108 116 126 126 118 114 121 128 124 117 123 126 131 135 136 137 134 132 135 134 121 329 296 289 297 304 304 302
135 118 114 107 107 118 120 122 118 113 108 105 100 94 94 100 106 106 105 107 109 112 114 113 114 115 115 115 122 129 134 141 144 224 278 278 281 285 290 293 293 296 301
163 147 135 125 124 121 129 129 125 120 117 116 110 107 103 102 101 103 105 105 104 106 107 110 116 119 122 128 137 148 174 208 246 272 280 282 285 289 294 299 304 306 311
184 178 164 154 146 141 138 136 133 131 129 129 125 118 112 103 95 91 94 105 115 119 120 122 124 129 135 134 114 94 66 21 329 298 289 288 292 300 306 307 306 307 305
224 205 193 182 173 169 161 156 154 148 149 147 141 135 122 106 98 93 88 87 108 105 105 102 92 91 152 129 118 95 27 39 348 332 283 278 284 289 303 314 320 318 309
226 222 215 212 202 191 187 186 180 182 176 170 169 172 169 163 144 88 53 63 72 97 183 197 356 301 254 238 240 251 308 311 316 307 287 295 290 287 309 319 322 326 319
229 233 226 221 220 215 204 198 205 206 211 213 210 216 230 240 260 284 301 317 322 331 326 254 295 3 88 174 258 275 297 286 302 313 285 282 290 290 297 309 311 312 311
234 240 244 242 237 232 228 221 211 211 217 228 234 238 242 248 254 266 283 295 297 290 279 260 251 231 276 324 320 313 309 302 298 300 299 301 299 306 306 306 309 317 320
231 230 239 250 251 245 241 239 235 224 219 219 228 236 243 246 252 263 274 282 287 289 276 258 270 258 273 300 314 309 302 295 299 297 299 306 303 303 303 304 311 313 310
246 240 241 241 246 253 253 249 247 244 238 232 231 230 235 243 249 254 258 267 273 276 275 275 273 277 283 290 299 302 301 295 296 296 300 299 301 299 301 306 311 308 308
247 251 248 247 244 242 250 255 257 255 248 244 244 244 243 246 246 253 256 256 256 254 256 261 269 276 282 286 289 287 283 280 280 285 289 292 299 305 306 307 306 310 307
240 247 247 243 247 247 246 251 255 254 251 247 246 250 249 252 255 257 259 261 260 257 258 263 272 271 270 272 273 276 273 275 284 290 294 298 303 302 304 302 303 304 309
240 245 251 248 246 251 249 248 250 253 256 259 260 259 260 258 257 257 259 262 261 263 264 260 258 262 265 263 262 265 274 281 286 290 291 291 293 297 300 299 298 302 308
241 243 250 255 253 251 254 252 253 255 256 257 260 261 263 264 263 261 260 261 263 263 259 258 258 257 257 262 265 270 275 279 280 282 287 288 291 294 298 300 300 304 307
Height
5724 5721 5719 5717 5713 5710 5707 5704 5702 5702 5701 5699 5700 5699 5698 5698 5697 5696 5695 5693 5692 5693 5693 5694 5697 5699 5701 5704 5707 5709 5712 5714 5719 5722 5725 5733 5739 5743 5747 5752 5756 5762 5766
5721 5719 5717 5714 5711 5709 5706 5704 5703 5702 5701 5700 5701 5701 5700 5700 5699 5698 5697 5695 5695 5695 5695 5697 5699 5702 5705 5707 5710 5713 5713 5715 5720 5724 5728 5735 5740 5745 5749 5753 5758 5762 5769
5719 5717 5715 5712 5710 5708 5706 5705 5703 5702 5702 5702 5702 5703 5702 5702 5702 5700 5697 5698 5697 5697 5699 5699 5701 5705 5709 5711 5714 5715 5715 5719 5721 5725 5733 5737 5744 5748 5751 5755 5760 5765 5770
5718 5716 5714 5712 5710 5708 5706 5705 5704 5703 5703 5703 5703 5704 5704 5705 5705 5704 5702 5700 5700 5700 5701 5703 5705 5709 5712 5715 5717 5718 5718 5720 5725 5731 5736 5742 5745 5749 5754 5759 5764 5768 5773
5716 5715 5713 5712 5709 5708 5707 5706 5705 5704 5705 5704 5705 5706 5707 5707 5707 5706 5705 5704 5703 5705 5705 5707 5710 5712 5714 5718 5721 5722 5724 5727 5731 5736 5741 5745 5750 5754 5759 5762 5766 5771 5774
5717 5715 5713 5711 5709 5708 5707 5706 5705 5705 5706 5705 5706 5707 5709 5710 5710 5710 5708 5708 5708 5709 5710 5712 5714 5715 5718 5722 5725 5727 5729 5732 5736 5741 5746 5750 5754 5758 5762 5765 5768 5771 5774
5717 5716 5713 5711 5710 5709 5707 5706 5705 5706 5706 5706 5706 5708 5710 5712 5713 5714 5714 5712 5711 5713 5713 5715 5718 5720 5724 5726 5729 5732 5734 5738 5741 5746 5750 5754 5758 5761 5764 5767 5770 5773 5776
5718 5717 5714 5713 5711 5710 5709 5707 5706 5706 5705 5706 5707 5708 5712 5714 5716 5717 5718 5717 5717 5716 5718 5719 5722 5726 5729 5731 5733 5736 5739 5743 5747 5750 5754 5758 5761 5763 5766 5769 5772 5775 5778
5719 5719 5717 5716 5715 5713 5711 5709 5708 5706 5706 5706 5708 5710 5712 5715 5718 5720 5722 5722 5722 5722 5723 5724 5726 5730 5733 5736 5738 5741 5744 5747 5750 5754 5758 5759 5762 5765 5769 5772 5776 5777 5777
5721 5721 5720 5720 5718 5717 5715 5714 5711 5709 5708 5708 5710 5712 5714 5717 5720 5723 5725 5726 5727 5727 5728 5729 5731 5733 5736 5740 5742 5744 5746 5750 5754 5757 5761 5764 5765 5767 5771 5773 5774 5777 5778
5723 5723 5723 5723 5722 5721 5720 5719 5717 5715 5713 5712 5713 5715 5716 5718 5721 5724 5727 5728 5730 5731 5732 5733 5735 5737 5739 5741 5744 5749 5752 5756 5758 5761 5764 5767 5769 5772 5774 5775 5776 5776 5777
5725 5725 5725 5725 5725 5725 5724 5723 5722 5721 5720 5718 5718 5719 5720 5722 5724 5726 5728 5730 5731 5733 5735 5736 5738 5741 5743 5746 5749 5753 5756 5758 5761 5765 5767 5769 5771 5772 5774 5775 5775 5775 5775
5727 5727 5727 5727 5728 5728 5728 5728 5728 5727 5727 5726 5725 5725 5726 5726 5727 5729 5731 5733 5735 5737 5739 5741 5742 5746 5749 5751 5754 5756 5759 5762 5765 5767 5769 5770 5772 5773 5774 5773 5774 5774 5773
5728 5729 5729 5729 5729 5730 5730 5731 5732 5733 5733 5733 5733 5733 5734 5735 5736 5737 5738 5739 5741 5743 5745 5747 5749 5751 5753 5756 5759 5761 5762 5764 5765 5767 5768 5770 5771 5771 5772 5772 5772 5771 5770
5729 5730 5731 5731 5732 5732 5733 5734 5735 5736 5737 5738 5738 5739 5740 5741 5742 5743 5744 5745 5747 5748 5750 5752 5754 5756 5757 5759 5761 5763 5764 5765 5766 5767 5768 5768 5769 5769 5769 5769 5769 5768 5767
5729 5730 5731 5733 5734 5734 5736 5737 5738 5739 5740 5742 5744 5745 5746 5747 5748 5748 5749 5750 5751 5752 5754 5755 5757 5758 5759 5761 5762 5763 5764 5765 5766 5766 5766 5766 5766 5767 5767 5766 5766 5765 5764
5729 5730 5732 5733 5734 5736 5737 5739 5741 5743 5744 5745 5747 5748 5749 5750 5751 5753 5753 5754 5755 5756 5757 5758 5758 5759 5760 5761 5762 5763 5764 5765 5765 5765 5765 5765 5765 5765 5764 5763 5761 5759 5757
5729 5730 5731 5732 5734 5736 5737 5740 5742 5744 5745 5747 5748 5749 5751 5752 5753 5754 5755 5756 5757 5757 5758 5759 5760 5760 5760 5761 5762 5763 5764 5764 5763 5763 5762 5761 5761 5760 5759 5758 5756 5754 5752
5726 5728 5729 5730 5732 5734 5736 5738 5740 5743 5745 5747 5749 5750 5750 5751 5753 5753 5754 5755 5756 5757 5758 5758 5759 5759 5760 5761 5761 5762 5761 5761 5760 5759 5758 5757 5756 5756 5756 5754 5753 5750 5746
5724 5726 5727 5729 5730 5732 5734 5736 5737 5739 5742 5744 5746 5748 5749 5750 5751 5751 5752 5753 5755 5756 5757 5757 5758 5759 5759 5760 5760 5759 5758 5757 5756 5755 5754 5755 5754 5753 5751 5749 5746 5746 5741
5719 5721 5723 5725 5727 5728 5730 5732 5734 5736 5738 5739 5741 5744 5746 5747 5748 5749 5749 5750 5751 5752 5753 5755 5756 5756 5757 5757 5757 5756 5754 5753 5752 5751 5751 5751 5750 5748 5745 5741 5742 5738 5735
5714 5717 5719 5720 5722 5724 5726 5728 5729 5732 5734 5735 5737 5739 5741 5742 5743 5744 5745 5746 5747 5748 5750 5751 5752 5752 5752 5752 5751 5750 5749 5749 5748 5748 5747 5745 5743 5741 5739 5737 5734 5731 5727
5708 5710 5713 5715 5717 5718 5720 5722 5724 5726 5727 5729 5731 5733 5735 5736 5738 5738 5739 5740 5741 5742 5744 5745 5745 5746 5746 5746 5745 5744 5743 5742 5741 5741 5740 5738 5736 5735 5733 5730 5726 5724 5719
5701 5703 5706 5708 5709 5712 5714 5716 5717 5719 5721 5722 5724 5726 5728 5729 5731 5731 5732 5734 5735 5735 5736 5737 5738 5738 5737 5737 5738 5738 5738 5737 5735 5735 5734 5732 5730 5727 5725 5723 5719 5714 5710
5694 5696 5698 5700 5702 5704 5706 5708 5710 5712 5714 5716 5718 5720 5721 5723 5724 5725 5726 5726 5727 5729 5730 5729 5729 5730 5729 5729 5729 5729 5730 5729 5729 5727 5725 5724 5722 5718 5716 5713 5708 5706 5702
5686 5688 5689 5691 5695 5697 5698 5700 5703 5705 5706 5709 5710 5713 5715 5716 5718 5718 5718 5719 5720 5720 5721 5722 5723 5722 5721 5722 5723 5722 5721 5721 5718 5716 5714 5714 5713 5710 5706 5703 5699 5696 5690